Location: Beau Repaire
(50.6144°N, 4.0551°E)
Time: 11:48:32
(UTC+00:00)

USA 186 - Pass Details

Date: 15 May 2026
Orbit: 338 x 359 km, 97.0° (Epoch: 19 May)

Event Time Altitude Azimuth Distance (km) Brightness Sun altitude
Exits shadow 21:12:57 - 209° (SSW) 1,355 4.1 -13.2°
Reaches altitude 10° 21:13:11 10° 212° (SSW) 1,275 4.0 -13.2°
Maximum altitude 21:15:22 21° 265° (W) 826 3.6 -13.4°
Drops below altitude 10° 21:17:35 10° 318° (NW) 1,296 5.7 -13.6°
Sets 21:19:47 0° 335° (NNW) 2,141 7.2 -13.8°
